Showing default

ERS 15, 2412

Orbit data source: Space-Track

ERS 15, 2412 is a payload satellite owned by USAF SSD (US) in LEO that was launched on Fri, 19 Aug 1966 UTC via an ATLAS SLV-3 AGENA D launch vehicle from the Air Force Western Test Range (AFWTR). Payloads include a variety of satellites, spacecraft, and rockets equipped with specific instruments for various scientific and technological missions. These include communications satellites like Starlink; space stations such as the ISS; scientific satellites like the Hubble; Earth observation satellites from companies like Planet Labs, Umbra, and HawkEye 360; GPS; miniature CubeSats for education and research; and military/defense satellites.

Loading next visibility...
ERS 15 details
Identifier
2412, 1966-077C
Orbit
LEO
Last TLE update1 day ago
Origin
Flag of USUSAF SSD (US)
ManufacturerTRW
MissionDefense Technology
Bus & MotorORS, Unknown motor
Mass5 kg wet, 5 kg dry
Launch date (UTC)
1966-08-19 (58 years ago)
Launch vehicle
ATLAS SLV-3 AGENA D
Launch site
Air Force Western Test Range (AFWTR)
Object type
Payload
Rocket body
Debris
Shape & HBROct Cyl, 0.2 m
Radar Cross Section0.045 m², Medium (>0.1 m² and < 1m²)

Expand to show TLE details & history

TLE from 1 day ago
0 ERS 15
1 02412U 66077C   25022.15335701  .00000002  00000-0  00000-0 0  9993
2 02412  90.3339 271.2708 0007632 219.1956 140.8343  8.59077977346573
Epoch: 2025-01-22T03:40Z
Definitive object data (Epoch: 2025-01-22T03:40:50.045Z)
Latitude-0.00002°
Longitude94.31296°
Altitude3,700.412 km
Speed6.288 km/s
True Right ascension18h 05m 04s
True Declination0° 00' 00"
Sunlit
Object was in daylight at TLE epoch
Visualization TLE readout
Latitude86.45267°
Longitude88.95663°
Altitude3,711.182 km
Speed6.29 km/s
Apparent Right ascension02h 44m 45s
Apparent Declination53° 25' 52"
Sunlit
Object is in daylight
Visualization observer readout
Local Sidereal Time15:05:22
Azimuth3.075° NNE
Elevation3.453°
Doppler factor1
Orbital elements
Apogee altitude3,697.769 km
Perigee altitude3,682.4 km
Semi-major axis10,068.222 km
Eccentricity0.0007632
Inclination90.3339°
RAAN271.2708°
Arg. of periapsis219.1956°
True anomaly140.88949°
Mean anomaly140.8343°
Eccentric anomaly140.8619°
Mean motion2.14839 °/min
BSTARUnknown
Orbital period167.57 mins
Loading maneuver chart data...
Loading historical data...
Loading historical data...
Loading historical data...
Loading historical data...
Loading historical data...
Loading historical data...
Loading historical data...

ERS 15 Visibility forecast

Observer location: undefined°, undefined

Span
Click to sort rows by Start time (UTC) header in descending order
Start Az.
Max El. time (UTC)
Max El. Az.
Max El.
End time (UTC)
End Az.
37 mins2025-01-23 16:01:14.044Z159.881° S2025-01-23 16:19:14.044Z86.83° E43.781°2025-01-23 16:38:14.044Z0.381° NNE
31 mins2025-01-23 18:53:14.044Z230.949° WSW2025-01-23 19:08:14.044Z287.771° WNW27.686°2025-01-23 19:24:14.044Z347.459° N
17 mins2025-01-24 01:16:14.044Z29.343° NE2025-01-24 01:24:14.044Z56.641° ENE14.348°2025-01-24 01:33:14.044Z87.048° E
36 mins2025-01-24 03:59:14.044Z5.142° NNE2025-01-24 04:17:14.044Z98.778° ESE43.518°2025-01-24 04:35:14.044Z174.036° S
29 mins2025-01-24 06:47:14.044Z349.915° N2025-01-24 07:01:14.044Z296.316° NW29.208°2025-01-24 07:16:14.044Z241.539° WSW
|